When you browse on this site, cookies collect data to enhance your experience and personalize the content and advertising you see.
Visit our Privacy Policy to learn more. By continuing to use the site, you agree to this use of cookies and data.
  • en Suisse
  • Liste des pays
  • À 7 jours
  • Température de l'eau
  • Carte météo
  • Widgets météo
  • user-avatar
    Se connecter

    Météo par heure à Szentendre

    Ce jour, 5 Juin, Vendredi

    Heure Température Précipitation Vent Pression Humidité
    00:00 +17°C° 0 mm 5 m/s 736 mmHg 70%
    01:00 +17°C° 0 mm 5 m/s 736 mmHg 69%
    02:00 +17°C° 0.1 mm 5 m/s 736 mmHg 69%
    03:00 +17°C° 0.1 mm 4 m/s 735 mmHg 70%
    04:00 +17°C° 0.1 mm 4 m/s 735 mmHg 70%
    05:00 +18°C° 0.4 mm 4 m/s 735 mmHg 72%
    06:00 +18°C° 0.4 mm 4 m/s 736 mmHg 74%
    07:00 +17°C° 0.4 mm 5 m/s 736 mmHg 77%
    08:00 +19°C° 0.2 mm 4 m/s 736 mmHg 76%
    09:00 +20°C° 0.2 mm 4 m/s 736 mmHg 75%
    10:00 +20°C° 0.2 mm 4 m/s 737 mmHg 74%
    11:00 +20°C° 0.5 mm 3 m/s 737 mmHg 77%
    12:00 +19°C° 0.5 mm 3 m/s 737 mmHg 80%
    13:00 +19°C° 0.5 mm 2 m/s 737 mmHg 83%
    14:00 +19°C° 1.5 mm 2 m/s 737 mmHg 85%
    15:00 +18°C° 1.5 mm 3 m/s 737 mmHg 87%
    16:00 +18°C° 1.5 mm 3 m/s 737 mmHg 88%
    17:00 +18°C° 0.2 mm 2 m/s 737 mmHg 90%
    18:00 +17°C° 0.2 mm 2 m/s 737 mmHg 91%
    19:00 +17°C° 0.2 mm 2 m/s 738 mmHg 92%
    20:00 +16°C° 0 mm 1 m/s 738 mmHg 92%
    21:00 +16°C° 0 mm 1 m/s 739 mmHg 92%
    22:00 +15°C° 0 mm 1 m/s 740 mmHg 92%
    23:00 +15°C° 0 mm 1 m/s 740 mmHg 92%

    Demain, 6 Juin, Samedi

    Heure Température Précipitation Vent Pression Humidité
    00:00 +14°C° 0 mm 1 m/s 741 mmHg 92%
    01:00 +14°C° 0 mm 1 m/s 741 mmHg 91%
    02:00 +14°C° 0 mm 1 m/s 741 mmHg 91%
    03:00 +13°C° 0 mm 1 m/s 742 mmHg 91%
    04:00 +13°C° 0 mm 1 m/s 742 mmHg 91%
    05:00 +15°C° 0 mm 1 m/s 743 mmHg 86%
    06:00 +16°C° 0 mm 1 m/s 743 mmHg 81%
    07:00 +19°C° 0 mm 1 m/s 743 mmHg 76%
    08:00 +20°C° 0 mm 1 m/s 744 mmHg 68%
    09:00 +21°C° 0 mm 2 m/s 744 mmHg 60%
    10:00 +24°C° 0 mm 2 m/s 744 mmHg 52%
    11:00 +24°C° 0 mm 3 m/s 744 mmHg 53%
    12:00 +25°C° 0 mm 3 m/s 743 mmHg 53%
    13:00 +26°C° 0 mm 3 m/s 743 mmHg 53%
    14:00 +26°C° 0.1 mm 3 m/s 743 mmHg 55%
    15:00 +26°C° 0.1 mm 3 m/s 742 mmHg 57%
    16:00 +26°C° 0.1 mm 3 m/s 742 mmHg 58%
    17:00 +25°C° 0.1 mm 2 m/s 742 mmHg 65%
    18:00 +24°C° 0.1 mm 2 m/s 741 mmHg 71%
    19:00 +21°C° 0.1 mm 2 m/s 741 mmHg 77%
    20:00 +21°C° 0.5 mm 2 m/s 741 mmHg 80%
    21:00 +20°C° 0.5 mm 2 m/s 742 mmHg 84%
    22:00 +19°C° 0.5 mm 2 m/s 742 mmHg 87%
    23:00 +19°C° 1.3 mm 1 m/s 742 mmHg 88%

    Après-demain, 7 Juin, Dimanche

    Heure Température Précipitation Vent Pression Humidité
    00:00 +19°C° 1.3 mm 1 m/s 742 mmHg 89%
    01:00 +19°C° 1.3 mm 1 m/s 741 mmHg 91%
    02:00 +19°C° 0.8 mm 1 m/s 741 mmHg 91%
    03:00 +18°C° 0.8 mm 1 m/s 741 mmHg 92%
    04:00 +17°C° 0.8 mm 2 m/s 741 mmHg 93%
    05:00 +18°C° 0.7 mm 2 m/s 741 mmHg 92%
    06:00 +19°C° 0.7 mm 2 m/s 742 mmHg 90%
    07:00 +19°C° 0.7 mm 2 m/s 742 mmHg 89%
    08:00 +20°C° 0.3 mm 2 m/s 742 mmHg 87%
    09:00 +21°C° 0.3 mm 2 m/s 742 mmHg 84%
    10:00 +21°C° 0.3 mm 2 m/s 743 mmHg 82%
    11:00 +24°C° 0.1 mm 2 m/s 742 mmHg 76%
    12:00 +25°C° 0.1 mm 2 m/s 742 mmHg 71%
    13:00 +26°C° 0.1 mm 2 m/s 742 mmHg 66%
    14:00 +26°C° 1.9 mm 2 m/s 742 mmHg 69%
    15:00 +25°C° 1.9 mm 2 m/s 742 mmHg 72%
    16:00 +25°C° 1.9 mm 2 m/s 741 mmHg 75%
    17:00 +24°C° 1.6 mm 2 m/s 742 mmHg 78%
    18:00 +23°C° 1.6 mm 2 m/s 742 mmHg 81%
    19:00 +21°C° 1.6 mm 2 m/s 742 mmHg 84%
    20:00 +21°C° 1 mm 1 m/s 742 mmHg 85%
    21:00 +20°C° 1 mm 1 m/s 743 mmHg 86%
    22:00 +19°C° 1 mm 1 m/s 743 mmHg 87%
    23:00 +19°C° 0.2 mm 1 m/s 743 mmHg 88%

    8 Juin, Lundi

    Heure Température Précipitation Vent Pression Humidité
    00:00 +18°C° 0.2 mm 1 m/s 743 mmHg 89%
    01:00 +18°C° 0.2 mm 1 m/s 743 mmHg 91%
    02:00 +18°C° 0.1 mm 1 m/s 743 mmHg 92%
    03:00 +16°C° 0.1 mm 1 m/s 743 mmHg 93%
    04:00 +16°C° 0.1 mm 1 m/s 743 mmHg 94%
    05:00 +18°C° 0.2 mm 1 m/s 743 mmHg 92%
    06:00 +19°C° 0.2 mm 1 m/s 743 mmHg 90%
    07:00 +20°C° 0.2 mm 1 m/s 743 mmHg 88%
    08:00 +21°C° 0 mm 1 m/s 744 mmHg 85%
    09:00 +21°C° 0 mm 1 m/s 744 mmHg 81%
    10:00 +22°C° 0 mm 1 m/s 744 mmHg 77%
    11:00 +23°C° 0.1 mm 1 m/s 744 mmHg 73%
    12:00 +24°C° 0.1 mm 2 m/s 744 mmHg 68%
    13:00 +25°C° 0.1 mm 2 m/s 744 mmHg 64%
    14:00 +25°C° 0.4 mm 2 m/s 743 mmHg 65%
    15:00 +25°C° 0.4 mm 2 m/s 743 mmHg 66%
    16:00 +25°C° 0.4 mm 2 m/s 743 mmHg 68%
    17:00 +23°C° 0.3 mm 2 m/s 743 mmHg 72%
    18:00 +21°C° 0.3 mm 2 m/s 743 mmHg 77%
    19:00 +20°C° 0.3 mm 2 m/s 743 mmHg 82%
    20:00 +19°C° 0 mm 2 m/s 743 mmHg 84%
    21:00 +18°C° 0 mm 2 m/s 744 mmHg 86%
    22:00 +17°C° 0 mm 2 m/s 744 mmHg 88%
    23:00 +18°C° 0 mm 1 m/s 744 mmHg 88%

    9 Juin, Mardi

    Heure Température Précipitation Vent Pression Humidité
    00:00 +18°C° 0 mm 1 m/s 744 mmHg 88%
    01:00 +18°C° 0 mm 1 m/s 744 mmHg 88%
    02:00 +18°C° 0 mm 1 m/s 744 mmHg 88%
    03:00 +18°C° 0 mm 1 m/s 744 mmHg 88%
    04:00 +16°C° 0 mm 0 m/s 743 mmHg 88%
    05:00 +18°C° 0.1 mm 1 m/s 744 mmHg 89%
    06:00 +18°C° 0.1 mm 1 m/s 744 mmHg 89%
    07:00 +17°C° 0.1 mm 2 m/s 744 mmHg 89%
    08:00 +19°C° 0.1 mm 1 m/s 744 mmHg 88%
    09:00 +19°C° 0.1 mm 1 m/s 744 mmHg 87%
    10:00 +20°C° 0.1 mm 1 m/s 744 mmHg 86%
    11:00 +20°C° 0.1 mm 2 m/s 744 mmHg 80%
    12:00 +23°C° 0.1 mm 2 m/s 744 mmHg 74%
    13:00 +24°C° 0.1 mm 2 m/s 744 mmHg 68%
    14:00 +24°C° 0.8 mm 2 m/s 744 mmHg 71%
    15:00 +24°C° 0.8 mm 2 m/s 744 mmHg 73%
    16:00 +24°C° 0.8 mm 3 m/s 744 mmHg 76%
    17:00 +21°C° 1.7 mm 3 m/s 744 mmHg 81%
    18:00 +20°C° 1.7 mm 3 m/s 744 mmHg 86%
    19:00 +19°C° 1.7 mm 3 m/s 744 mmHg 90%
    20:00 +18°C° 0.1 mm 3 m/s 744 mmHg 91%
    21:00 +18°C° 0.1 mm 3 m/s 745 mmHg 92%
    22:00 +17°C° 0.1 mm 3 m/s 745 mmHg 93%
    23:00 +17°C° 0 mm 2 m/s 745 mmHg 93%

    10 Juin, Mercredi

    Heure Température Précipitation Vent Pression Humidité
    00:00 +16°C° 0 mm 2 m/s 745 mmHg 93%
    01:00 +16°C° 0 mm 2 m/s 745 mmHg 94%
    02:00 +16°C° 0 mm 2 m/s 746 mmHg 94%
    03:00 +16°C° 0 mm 2 m/s 746 mmHg 94%
    04:00 +16°C° 0 mm 2 m/s 746 mmHg 94%
    05:00 +16°C° 0 mm 2 m/s 746 mmHg 92%
    06:00 +17°C° 0 mm 2 m/s 747 mmHg 90%
    07:00 +17°C° 0 mm 2 m/s 747 mmHg 88%
    08:00 +18°C° 0 mm 2 m/s 747 mmHg 85%
    09:00 +19°C° 0 mm 2 m/s 748 mmHg 81%
    10:00 +20°C° 0 mm 3 m/s 748 mmHg 77%
    11:00 +21°C° 0 mm 3 m/s 748 mmHg 75%
    12:00 +22°C° 0 mm 3 m/s 748 mmHg 72%
    13:00 +22°C° 0 mm 3 m/s 748 mmHg 69%
    14:00 +24°C° 0 mm 3 m/s 748 mmHg 68%
    15:00 +24°C° 0 mm 3 m/s 747 mmHg 66%
    16:00 +24°C° 0 mm 2 m/s 747 mmHg 64%
    17:00 +23°C° 0 mm 2 m/s 747 mmHg 69%
    18:00 +21°C° 0 mm 2 m/s 747 mmHg 74%
    19:00 +21°C° 0 mm 1 m/s 747 mmHg 79%
    20:00 +20°C° 0 mm 1 m/s 748 mmHg 81%
    21:00 +19°C° 0 mm 1 m/s 748 mmHg 84%
    22:00 +18°C° 0 mm 1 m/s 748 mmHg 86%
    23:00 +18°C° 0 mm 1 m/s 748 mmHg 88%
    Voir plus